User: anonymous   Login
Location: Caltech
(34.1382°N, 118.1253°W)
Time: 13:29:33
(UTC-08:00)
Language:

Cosmos 44 Rocket - Orbit

View from above orbital plane
View from above orbital plane
View from above satellite
View from above satellite

Ground track
Ground track

The orbit data is extracted from the following two-line orbital elements,

1 00877U 64053B   14328.52749263  .00000298  00000-0  87084-4 0  7927
2 00877 065.0778 145.7467 0052225 126.6175 233.9744 14.58953205664993
Epoch (UTC): 24 November 2014 12:39:35
Eccentricity: 0.0052225
inclination: 65.0778°
perigee height: 659 km
apogee height: 733 km
right ascension of ascending node: 145.7467°
argument of perigee: 126.6175°
revolutions per day: 14.58953205
mean anomaly at epoch: 233.9744°
orbit number at epoch: 66499

The dashed part of the orbit path shows where the satellite is in the earth's shadow,  

DLR